EA5SW-13 Weather Reports


time (UTC)temp
C
wind
direction
speed
KPH
gust
KPH
rain 1hr
cm
rain 24hr
cm
rain mn
cm
humidity
%
barometer
mb
20260509220853 16 0.0 0.0 0.00 1.35 0.00 89
20260509215827 16 0.0 1.6 0.00 1.35 1.35 88
20260509214851 16 0.0 0.0 0.00 1.35 1.35 88
20260509213826 16 0.0 0.0 0.00 1.35 1.35 86
20260509212851 16 0.0 0.0 0.00 1.35 1.35 86
20260509211827 16 0.0 0.0 0.00 1.35 1.35 86
20260509210850 -17 0.0 0.0 0.00 1.35 1.35
20260509205828 16 0.0 0.0 0.00 1.35 1.35 84
20260509204911 16 0.0 0.0 0.00 1.35 1.35 84
20260509203846 16 0.0 0.0 0.00 1.35 1.35 83
20260509202911 16 0.0 0.0 0.00 1.35 1.35 82
20260509201827 16 0.0 0.0 0.00 1.35 1.35 82
20260509200911 16 0.0 0.0 0.00 1.35 1.35 82
20260509195827 16 0.0 0.0 0.00 1.35 1.35 81
20260509194850 17 0.0 0.0 0.00 1.35 1.35 81
20260509193827 17 0.0 0.0 0.00 1.35 1.35 80
20260509192851 17 0.0 0.0 0.00 1.35 1.35 80
20260509191826 17 0.0 0.0 0.00 1.35 1.35 79
20260509190911 17 0.0 0.0 0.00 1.35 1.35 74
20260509185827 17 0.0 0.0 0.00 1.35 1.35 74
20260509184851 17 0.0 0.0 0.00 1.35 1.35 73
20260509183827 18 0.0 0.0 0.00 1.35 1.35 73
20260509182851 18 0.0 0.0 0.00 1.35 1.35 72
20260509181827 18 0.0 0.0 0.00 1.35 1.35 71
20260509180851 18 0.0 0.0 0.00 1.35 1.35 70
20260509180043 19 0.0 0.0 0.00 1.35 1.35 67
20260509174911 20 0.0 0.0 0.00 1.35 1.35 64
20260509173827 21 0.0 0.0 0.00 1.35 1.35 64
20260509172911 21 0.0 0.0 0.00 1.35 1.35 61
20260509171827 22 0.0 0.0 0.00 1.35 1.35 55
20260509170939 23 0.0 1.6 0.00 1.35 1.35 54
20260509165827 23 0.0 0.0 0.00 1.35 1.35 55
20260509164851 23 0.0 0.0 0.00 1.35 1.35 54
20260509163827 24 0.0 0.0 0.00 1.35 1.35 55
20260509162939 23 0.0 1.6 0.00 1.35 1.35 58
20260509162023 22 0.0 0.0 0.00 1.35 1.35 60
20260509161203 22 0.0 0.0 0.00 1.35 1.35 58
20260509153827 22 0.0 0.0 0.00 1.35 1.35 68
20260509152851 21 0.0 0.0 0.00 1.35 1.35 65
20260509151827 22 0.0 0.0 0.00 1.35 1.35 71
20260509150852 20 0.0 1.6 0.00 1.35 1.35 72
20260509145908 19 0.0 0.0 0.00 1.35 1.35 73
20260509144851 19 0.0 0.0 0.00 1.35 1.35 73
20260509143827 20 0.0 1.6 0.00 1.35 1.35 73
20260509142852 20 0.0 1.6 0.00 1.35 1.35 74
20260509141827 20 0.0 1.6 0.00 1.35 1.35 76
20260509140911 20 0.0 1.6 0.00 1.35 1.35 84
20260509135827 18 0.0 1.6 0.00 1.35 1.35 91
20260509134911 17 0.0 1.6 0.00 1.35 1.35 95
20260509133827 17 0.0 1.6 0.03 1.35 1.35 98
20260509132851 16 0.0 0.0 0.05 1.35 1.35 98
20260509131827 16 0.0 0.0 0.10 1.35 1.35 98
20260509130851 16 0.0 1.6 0.10 1.35 1.35 97
20260509125827 16 0.0 0.0 0.15 1.35 1.35 97
20260509124851 16 0.0 0.0 0.18 1.35 1.35 97
20260509123828 15 0.0 0.0 0.20 1.32 1.32 97
20260509122851 15 0.0 0.0 0.20 1.30 1.30 96
20260509121828 15 0.0 0.0 0.20 1.27 1.27 96
20260509120851 15 0.0 0.0 0.23 1.27 1.27 95
20260509115828 15 0.0 0.0 0.18 1.19 1.19 95
20260509114851 15 0.0 0.0 0.20 1.17 1.17 94
20260509113828 15 0.0 0.0 0.20 1.12 1.12 94
20260509112852 15 0.0 0.0 0.23 1.09 1.09 94
20260509111827 16 0.0 1.6 0.23 1.04 1.04 94
20260509110852 15 0.0 0.0 0.23 1.02 1.02 93
20260509105651 15 0.0 0.0 0.30 1.02 1.02 93
20260509104627 15 0.0 0.0 0.30 0.97 0.97 93
20260509103652 15 0.0 1.6 0.30 0.89 0.89 93
20260509102628 15 0.0 0.0 0.30 0.84 0.84 92
20260509101652 15 0.0 1.6 0.33 0.81 0.81 92
20260509100628 15 0.0 1.6 0.36 0.79 0.79 92
20260509095712 15 0.0 1.6 0.38 0.71 0.71 91
20260509094628 15 0.0 1.6 0.36 0.66 0.66 91
20260509093652 15 0.0 0.0 0.38 0.61 0.61 90
20260509092648 15 0.0 1.6 0.43 0.53 0.53 90
20260509091651 15 0.0 1.6 0.43 0.48 0.48 89
20260509090628 15 0.0 1.6 0.38 0.43 0.43 88
20260509085740 16 0.0 1.6 0.33 0.33 0.33 86
20260509084628 16 0.0 0.0 0.30 0.30 0.30 85
20260509083652 16 0.0 0.0 0.20 0.20 0.20 84
20260509082628 16 0.0 0.0 0.13 0.13 0.13 83
20260509081712 16 0.0 1.6 0.05 0.05 0.05 82
20260509080628 16 0.0 0.0 0.03 0.03 0.03 82
20260509075652 16 0.0 1.6 0.00 0.00 0.00 81
20260509074627 16 0.0 0.0 0.00 0.00 0.00 81
20260509073652 16 0.0 0.0 0.00 0.00 0.00 80
20260509072627 16 0.0 0.0 0.00 0.00 0.00 80
20260509071652 17 0.0 0.0 0.00 0.00 0.00 80
20260509070628 17 0.0 0.0 0.00 0.00 0.00 80
20260509065712 17 0.0 0.0 0.00 0.00 0.00 80
20260509064628 17 0.0 0.0 0.00 0.00 0.00 80
20260509063652 17 0.0 1.6 0.00 0.00 0.00 80
20260509062628 17 0.0 1.6 0.00 0.00 0.00 80
20260509061711 16 0.0 3.2 0.00 0.00 0.00 81
20260509060628 16 180 1.6 3.2 0.00 0.00 0.00 81
20260509055652 16 0.0 1.6 0.00 0.00 0.00 81
20260509054628 16 0.0 0.0 0.00 0.00 0.00 81
20260509053652 16 0.0 0.0 0.00 0.00 0.00 81
20260509052628 16 0.0 1.6 0.00 0.00 0.00 81
20260509051652 16 0.0 3.2 0.00 0.00 0.00 81
20260509050708 16 180 1.6 3.2 0.00 0.00 0.00 81
20260509045428 16 0.0 0.0 0.00 0.00 0.00 81
20260509044452 16 0.0 1.6 0.00 0.00 0.00 82
20260509043428 16 0.0 0.0 0.00 0.00 0.00 82
20260509042512 16 0.0 1.6 0.00 0.00 0.00 81
20260509041429 16 0.0 0.0 0.00 0.00 0.00 80
20260509040452 17 0.0 1.6 0.00 0.00 0.00 80
20260509035252 17 0.0 1.6 0.00 0.00 0.00 78
20260509034228 17 0.0 1.6 0.00 0.00 0.00 78
20260509033252 17 0.0 1.6 0.00 0.00 0.00 77
20260509032228 17 0.0 1.6 0.00 0.00 0.00 77
20260509031252 17 0.0 0.0 0.00 0.00 0.00 76
20260509030228 17 0.0 1.6 0.00 0.00 0.00 76
20260509025828 17 0.0 0.0 0.00 0.00 0.00 75
20260509024912 17 0.0 1.6 0.00 0.00 0.00 75
20260509023828 17 0.0 1.6 0.00 0.00 0.00 75
20260509022852 17 0.0 1.6 0.00 0.00 0.00 76
20260509021828 17 0.0 1.6 0.00 0.00 0.00 76
20260509020852 17 0.0 1.6 0.00 0.00 0.00 77
20260509015828 17 0.0 1.6 0.00 0.00 0.00 78
20260509014852 17 0.0 0.0 0.00 0.00 0.00 80
20260509013828 16 0.0 1.6 0.00 0.00 0.00 80
20260509012852 16 0.0 1.6 0.00 0.00 0.00 80
20260509012004 17 0.0 1.6 0.00 0.00 0.00 80
20260509010316 17 0.0 1.6 0.00 0.00 0.00 80
20260509005340 17 0.0 1.6 0.00 0.00 0.00 80
20260509004055 17 0.0 1.6 0.00 0.00 0.00 80
20260509003604 17 0.0 1.6 0.00 0.00 0.00 81
20260509001028 17 0.0 0.0 0.00 0.00 0.00 81
20260508235828 17 0.0 0.0 0.00 0.00 0.00 81
20260508234852 17 0.0 0.0 0.00 0.00 0.00 81
20260508233653 17 0.0 1.6 0.00 0.00 0.00 81
20260508232452 17 0.0 1.6 0.00 0.00 0.00 81
20260508231428 17 0.0 0.0 0.00 0.00 0.00 81
20260508230452 17 0.0 1.6 0.00 0.00 0.00 77
20260508225429 17 0.0 1.6 0.00 0.00 0.00 76
20260508224452 17 0.0 1.6 0.00 0.00 0.00 76
20260508223428 17 0.0 0.0 0.00 0.00 0.00 76
20260508222452 17 0.0 1.6 0.00 0.00 0.00 76